Location: Cuyahoga Falls
(41.1339°N, 81.4846°W)
Time: 05:30:51
(UTC+00:00)

Daily predictions for brighter satellites

Satellite Brightness Start Highest point End
(mag) Time Altitude Azimuth Time Altitude Azimuth Time Altitude Azimuth
Cosmos 1782 Rocket 3.8 00:03:12 10° SSW 00:07:36 70° W 00:12:03 10° N
NOSS 3-4 (A) 3.8 00:07:12 10° NW 00:14:14 88° NE 00:21:09 16° SE
NOSS 3-4 (C) 3.8 00:07:17 10° NW 00:14:19 87° NE 00:21:03 16° SE
Helios 1A Rocket 4.3 00:12:57 10° N 00:15:58 30° WNW 00:18:58 10° SW
NOAA 6 3.9 00:13:12 10° SSE 00:18:22 88° WSW 00:23:33 10° NNW
Meteor 2-12 Rocket 4.3 00:12:35 10° N 00:18:42 66° E 00:24:43 10° SSE
Cosmos 1023 Rocket 4.3 00:14:00 10° SSW 00:19:12 78° ESE 00:20:32 50° NNE
Cosmos 1269 Rocket 3.9 00:16:41 10° SSW 00:21:56 88° ESE 00:23:52 41° NNE
COSMO-SKYMED 1 4.0 00:23:50 10° N 00:27:35 35° WNW 00:31:20 10° SW
Cosmos 1975 Rocket 3.4 00:28:02 10° NNW 00:31:41 59° NW 00:31:41 59° NW
Resurs 01 Rocket 3.6 00:36:54 19° N 00:36:54 19° N 00:38:13 10° N
Cosmos 1891 Rocket 4.4 00:29:21 10° S 00:35:44 88° E 00:42:15 10° N
Cosmos 1943 Rocket 4.4 00:37:44 10° S 00:38:13 12° S 00:38:13 12° S
USA 281 3.1 00:42:59 55° SSE 00:44:38 86° ENE 00:51:15 10° NNW
ATLAS CENTAUR R/B 3.4 00:43:51 10° WSW 00:45:50 21° WNW 00:45:50 21° WNW
H-II Stage 2 4.3 00:39:17 10° WSW 00:46:53 22° SSW 00:47:38 21° S
Cosmos 1833 Rocket 3.1 00:55:36 10° NNW 01:00:07 56° NW 01:00:07 56° NW
CZ-4C R/B 4.4 01:10:17 10° WNW 01:13:00 15° NNW 01:13:55 14° NNW
ACS3 Solar Sail 3.6 08:40:16 10° NNE 08:42:21 23° NNE 08:42:21 23° NNE
Cosmos 2333 Rocket 4.4 08:57:09 16° NNE 08:57:09 16° NNE 08:58:14 10° NNE
ADEOS Rocket 4.3 08:46:01 10° NNE 08:49:36 36° NNE 08:49:36 36° NNE
Gbstr 26 Del rocket 4.4 09:16:33 42° E 09:16:33 42° E 09:20:31 10° ENE
Cosmos 2322 Rocket 4.1 09:19:34 19° N 09:19:34 19° N 09:21:13 10° NNE
Cosmos 2360 Rocket 4.0 09:19:42 21° N 09:19:42 21° N 09:21:38 10° NNE
SL-16 R/B 4.5 09:25:39 12° N 09:25:39 12° N 09:26:07 10° N
USA 59 Rocket 2.5 09:27:28 11° NE 09:27:28 11° NE 09:27:40 10° NE
USA 267 3.6 09:21:07 10° NE 09:26:50 48° NNW 09:26:50 48° NNW
Cosmos 2228 Rocket 4.4 09:33:48 33° NE 09:33:48 33° NE 09:36:24 10° NNE
Cosmos 1943 Rocket 4.4 09:30:35 10° N 09:34:45 21° NE 09:38:53 10° E
Cosmos 1340 Rocket 4.3 09:42:17 31° SE 09:42:17 31° SE 09:44:34 10° SSE
ARGOS 3.3 09:35:49 10° N 09:40:17 60° N 09:40:17 60° N
Cosmos 1727 Rocket 3.9 09:41:13 10° S 09:47:24 87° E 09:53:38 10° N
NOSS 2-1 (E) 4.1 09:53:05 42° ENE 09:53:05 42° ENE 09:55:23 10° NE
Cosmos 2219 Rocket 3.0 09:57:43 35° NNW 09:57:43 35° NNW 10:01:42 10° N
PAYLOAD A 4.0 09:51:49 10° N 09:57:14 76° WNW 09:59:56 30° SSW
Cosmos 921 Rocket 3.1 09:56:35 60° N 09:57:20 79° ENE 10:01:47 10° SSE
Cosmos 1140 Rocket 4.3 09:56:14 10° N 10:01:13 49° ENE 10:06:08 10° SE
USA 234 3.1 09:55:42 10° SE 10:02:15 81° SW 10:05:19 35° NW
COSMOS 2428 2.7 09:57:52 13° SSW 10:02:59 82° ESE 10:08:42 10° NNE
Cosmos 44 Rocket 4.4 10:00:02 20° NNW 10:03:19 44° NE 10:08:14 10° SE
USA 276 4.2 10:07:19 20° ENE 10:07:19 20° ENE 10:08:42 10° E
CZ-2C R/B 2.8 10:06:11 10° N 10:10:15 43° NW 10:10:15 43° NW
Cosmos 2322 3.6 10:07:34 23° SSW 10:11:10 74° WNW 10:16:52 10° NNE
Cosmos 2173 Rocket 3.9 10:08:07 10° N 10:14:14 90° E 10:20:19 10° S
FengYun 1-2 T 4.3 10:09:13 10° NNE 10:14:47 83° ESE 10:20:24 10° SSW
IRS-1D 3.7 10:13:32 10° NNE 10:18:30 68° ESE 10:23:23 10° S
Iridium 4 Rocket 4.1 10:14:35 10° N 10:18:45 44° E 10:22:42 10° SSE
Cosmos 1000 Rocket 4.4 10:17:44 10° SSW 10:23:58 65° W 10:30:17 10° N
Cosmos 1328 3.4 10:20:32 10° S 10:24:08 86° W 10:27:48 10° N
Cosmos 1980 4.4 10:19:12 10° S 10:24:39 54° ESE 10:30:10 10° NNE
Cosmos 1939 Rocket 2.8 10:21:08 10° N 10:24:53 52° WNW 10:25:05 51° W
ACS3 Solar Sail 3.3 10:24:30 10° NNW 10:26:29 16° NW 10:26:29 16° NW
Cosmos 2123 Rocket 3.9 10:23:12 10° S 10:29:26 84° W 10:35:40 10° N
Okean 1-7 4.4 10:32:41 21° NNW 10:32:41 21° NNW 10:34:27 10° NNW
Cosmos 1908 Rocket 3.5 10:27:01 10° N 10:31:29 86° E 10:35:53 10° S
COSMOS 2455 4.5 10:33:37 16° NW 10:33:37 16° NW 10:37:10 10° N
NOSS 3-1 (C) 3.3 10:33:43 32° W 10:35:17 42° NW 10:40:31 10° NNE
NOSS 2-1 (C) 3.7 10:35:54 32° NW 10:35:54 32° NW 10:38:23 10° NNE
Cosmos 1300 Rocket 4.3 10:33:08 10° N 10:37:23 53° E 10:41:36 10° SSE
Cosmos 2278 Rocket 2.7 10:33:02 10° NNW 10:38:40 62° ENE 10:44:15 10° SE
NOSS 2-1 (D) 4.0 10:40:46 26° NNW 10:40:46 26° NNW 10:43:01 10° NNE
Cosmos 407 Rocket 4.1 10:35:55 10° NNW 10:40:57 57° ENE 10:45:58 10° SSE
Cosmos 2237 Rocket 2.5 10:35:22 10° SSW 10:40:59 69° ESE 10:46:37 10° NNE
BlueWalker 3 2.2 10:41:49 24° NW 10:43:45 56° NE 10:47:17 10° ESE
Cosmos 1023 Rocket 4.4 10:39:40 10° NNW 10:44:40 61° WSW 10:49:38 10° S
Cosmos 2016 Rocket 4.0 10:38:51 10° N 10:45:15 88° W 10:51:36 10° S
Meteor 1-24 Rocket 3.7 10:40:57 10° SSW 10:46:44 62° WNW 10:52:19 10° N
Helios 1A Rocket 2.3 10:43:46 10° SSE 10:47:09 85° WSW 10:50:34 10° NNW
Cosmos 1269 Rocket 4.2 10:45:20 10° NNW 10:50:27 51° WSW 10:55:32 10° S
Meteor 2-21 Rocket 4.5 10:46:32 10° SSW 10:52:33 58° W 10:58:33 10° N
SJ 16-02 3.9 10:49:41 10° NNE 10:52:48 19° ENE 10:55:53 10° ESE
Cosmos 2292 Rocket 3.5 10:49:34 10° SSW 10:53:26 74° W 10:58:28 10° N
Timation 2 Rocket 4.0 10:47:07 10° NNW 10:53:46 77° WSW 11:00:05 10° SSE
Meteor 2-5 Rocket 3.8 10:48:44 10° SSW 10:54:34 60° WNW 11:00:23 10° N
Cosmos 2061 Rocket 4.1 10:55:44 10° N 11:01:57 82° E 11:08:09 10° S
Gbstr 26 Del rocket 4.1 10:58:36 18° W 11:01:58 42° NNW 11:07:41 10° NE
SKYMED 2 3.8 11:04:14 10° S 11:08:24 47° W 11:12:37 10° NNW
Aureole 1 4.5 11:07:50 10° SSW 11:11:06 69° WNW 11:15:11 10° NNE
USA 59 Rocket 1.3 11:13:14 12° NW 11:13:26 12° NW 11:14:47 10° NNW
NOAA 12 4.4 11:11:22 10° N 11:16:25 45° WNW 11:21:27 10° SW
COSMO-SKYMED 1 2.6 11:12:25 10° S 11:16:26 53° W 11:20:30 10° NNW
NOSS 3-1 (A) 3.2 11:14:23 10° WSW 11:18:50 46° NW 11:24:10 10° NNE
Cosmos 1943 Rocket 2.2 11:13:27 10° NNW 11:18:53 59° WSW 11:24:15 10° S
Cosmos 1420 Rocket 4.0 11:16:15 10° SSW 11:21:29 77° WNW 11:26:48 10° NNE
NOSS 0 Rocket 4.3 11:17:46 10° SW 11:23:30 40° WNW 11:29:16 10° NNE
ARIANE 5 R/B 4.1 11:24:56 10° NNE 11:29:42 40° E 11:34:28 10° SSE
Cosmos 1869 2.9 11:31:48 10° N 11:35:19 89° W 11:38:47 10° S
SWARM C 4.5 11:32:45 10° S 11:36:03 86° W 11:39:23 10° N
SWARM A 4.4 11:32:51 10° S 11:36:09 77° E 11:39:28 10° N
Cosmos 1812 3.1 11:33:42 10° N 11:36:34 47° E 11:39:23 10° SSE
SL-16 R/B 3.1 11:33:09 10° S 11:38:41 57° ESE 11:44:15 10° NNE
ATLAS 3B R/B 4.2 11:33:12 10° S 11:40:12 49° ESE 11:47:36 10° NE
In-Cosmos 22 Rocket 4.4 11:35:01 10° S 11:40:48 87° W 11:46:41 10° N
Cosmos 2242 Rocket 3.5 11:36:54 10° SSW 11:41:14 69° W 11:45:37 10° N
